SCP
0 0 0 0 0 0 0 0 0 0 0 0 0 0 0 0 0 0 0 0 0 0 0 0 0 0 0 0 0 0 0 0 0 0 0 0 0 0 0 0 0 0 0 0 0 0 0 0 0 0 0 0 0 0
0 0 0 0 0 0 0 0 0 0 0 0 0 0 0 0 0 0 0 0 0 0 0 0 0 0 0 0 0 0 0 0 0 0 0 0 0 0 0 0 0 0 0 0 0 0 0 0 0 0 0 0 0 0
0 0 0 0 0 0 0 0 0 0 0 0 0 0 0 0 0 0 0 0 0 0 0 0 0 0 0 0 0 0 0 0 0 0 0 0 0 0 0 0 0 0 0 0 0 0 0 0 0 0 0 0 0 0
0 0 0 0 0 0 0 0 0 0 0 0 0 0 0 0 0 0 0 0 0 0 0 0 0 0 0 0 0 0 0 0 0 0 0 0 0 0 0 0 0 0 0 0 0 0 0 0 0 0 0 0 0 0
0 0 0 0 0 0 0 0 0 0 0 0 0 0 0 0 0 0 0 0 0 0 0 0 0 0 0 0 0 0 0 0 0 0 0 0 0 0 0 0 0 0 0 0 0 0 0 0 0 0 0 0 0 0
0 0 0 0 0 0 0 0 0 0 0 0 0 0 0 0 0 0 0 0 0 0 0 0 0 0 0 0 0 0 0 0 0 0 0 0 0 0 0 0 0 0 0 0 0 0 0 0 0 0 0 0 0 0
0 0 0 0 0 0 0 0 0 0 0 0 0 0 0 0 0 0 0 0 0 0 0 0 0 0 0 0 0 0 0 0 0 0 0 0 0 0 0 0 0 0 0 0 0 0 0 0 0 0 0 0 0 0
0 0 0 0 0 0 0 0 0 0 0 0 0 0 0 0 0 0 0 0 0 0 0 0 0 0 0 0 0 0 0 0 0 0 0 0 0 0 0 0 0 0 0 0 0 0 0 0 0 0 0 0 0 0
0 0 0 0 0 0 0 0 0 0 0 0 0 0 0 0 0 0 0 0 0 0 0 0 0 0 0 0 0 0 0 0 0 0 0 0 0 0 0 0 0 0 0 0 0 0 0 0 0 0 0 0 0 0
0 0 0 0 0 0 0 0 0 0 0 0 0 0 0 0 0 0 0 0 0 0 0 0 0 0 0 0 0 0 0 0 0 0 0 0 0 0 0 0 0 0 0 0 0 0 0 0 0 0 0 0 0 0
0 0 0 0 0 0 0 0 0 0 0 0 0 0 0 0 0 0 0 0 0 0 0 0 0 0 0 0 0 0 0 0 0 0 0 0 0 0 0 0 0 0 0 0 0 0 0 0 0 0 0 0 0 0
0 0 0 0 0 0 0 0 0 0 0 0 0 0 0 0 0 0 0 0 0 0 0 0 0 0 0 0 0 0 0 0 0 0 0 0 0 0 0 0 0 0 0 0 0 -0 0 0 0 0 0 0 0 0
0 0 0 0 0 0 0 0 0 0 0 0 0 0 0 0 0 0 0 0 0 0 0 0 0 0 0 0 0 0 0 0 0 0 0 0 0 0 0 0 0 0 0 0 0 0 0 0 0 0 0 0 0 0
0 0 0 0 0 0 0 0 0 0 0 0 0 0 0 0 0 0 0 0 0 0 0 0 0 0 0 0 0 0 0 0 0 0 0 0 0 0 0 0 0 0 0 0 0 0 0 0 0 0 0 0 0 0
0 0 0 0 0 0 0 0 0 0 0 0 0 0 0 0 0 0 0 0 0 0 0 0 0 0 0 0 0 0 0 0 0 0 0 0 0 0 0 0 0 0 0 0 0 0 0 0 0 0 0 0 0 0
0 0 0 0 0 0 0 0 0 0 0 0 0 0 0 0 0 0 0 0 0 0 0 0 0 0 0 0 0 0 0 0 0 0 0 0 0 0 0 0 0 0 0 0 0 0 0 0 0 0 0 0 0 0
0 0 0 0 0 0 0 0 0 0 0 0 0 0 0 0 0 0 0 0 0 0 0 0 0 0 0 0 0 0 0 0 0 0 0 0 0 0 0 0 0 0 0 0 0 0 0 0 0 0 0 0 0 0
0 0 0 0 0 0 0 0 0 0 0 0 0 0 0 0 0 0 0 0 0 0 0 0 0 0 0 0 0 0 0 0 0 0 0 0 0 0 0 0 0 0 0 0 0 0 0 0 0 0 0 0 0 0
0 0 0 0 0 0 0 0 0 0 0 0 0 0 0 0 0 0 0 0 0 0 0 0 0 0 0 0 0 0 0 0 0 0 0 0 0 0 0 0 0 0 0 0 0 0 0 0 0 0 0 -0 0 0
0 0 0 0 0 0 0 0 0 0 0 0 0 0 0 0 0 0 0 0 0 0 0 0 0 0 0 0 0 0 0 0 0 0 0 0 0 0 0 0 0 0 0 0 0 0 0 0 0 0 0 0 0 0
0 0 0 0 0 0 0 0 0 0 0 0 0 0 0 0 0 0 0 0 0 0 0 0 0 0 0 0 0 0 0 0 0 0 0 0 0 0 0 0 0 0 0 0 0 0 0 0 0 0 0 0 0 0
0 0 0 0 0 0 0 0 0 0 0 0 0 0 0 0 0 0 0 0 0 0 0 0 0 0 0 0 0 0 0 0 0 0 0 0 0 0 0 0 0 0 0 0 0 0 0 0 0 0 0 0 0 0
0 0 0 0 0 0 0 0 0 0 0 0 0 0 0 0 0 0 0 0 0 0 0 0 0 0 0 0 0 0 0 0 0 0 0 0 0 0 0 0 0 0 0 0 0 0 0 0 0 0 0 0 0 0
0 0 0 0 0 0 0 0 0 0 0 0 0 0 0 0 0 0 0 0 0 0 0 0 0 0 0 0 0 0 0 0 0 0 0 0 0 0 0 0 0 0 0 0 0 0 0 0 0 0 0 0 0 0
0 0 0 0 0 0 0 0 0 0 0 0 0 0 0 0 0 0 0 0 0 0 0 0 0 0 0 0 0 0 0 0 0 0 0 0 0 0 0 0 0 0 0 0 0 0 0 0 0 0 0 0 0 0
0 0 0 0 0 0 0 0 0 0 0 0 0 0 0 0 0 0 0 0 0 0 0 0 0 0 0 0 0 0 0 0 0 0 0 0 0 0 0 0 0 0 0 0 0 0 0 0 0 0 0 0 0 0
0 0 0 0 0 0 0 0 0 0 0 0 0 0 0 0 0 0 0 0 0 0 0 0 0 0 0 0 0 0 0 0 0 0 0 0 0 0 0 0 0 0 0 0 0 0 0 0 0 0 0 0 0 0
0 0 0 0 0 0 0 0 0 0 0 0 0 0 0 0 0 0 0 0 0 0 0 0 0 0 0 0 0 0 0 0 0 0 0 0 0 0 0 0 0 0 0 0 0 0 0 0 0 0 0 0 0 0
0 0 0 0 0 0 0 0 0 0 0 0 0 0 0 0 0 0 0 0 0 0 0 0 0 0 0 0 0 0 0 0 0 0 0 0 0 0 0 0 0 0 0 0 0 0 0 0 0 0 0 0 0 0
0 0 0 0 0 0 0 0 0 0 0 0 0 0 0 0 0 0 0 0 0 0 0 0 0 0 0 0 0 0 0 0 0 0 0 0 0 0 0 0 0 0 0 0 0 0 0 0 0 0 0 0 0 0
0 0 0 0 0 0 0 0 0 0 0 0 0 0 0 0 0 0 0 0 0 0 0 0 0 0 0 0 0 0 0 0 0 0 0 0 0 0 0 0 0 0 0 0 0 0 0 0 0 0 0 0 0 0
0 0 0 0 0 0 0 0 0 0 0 0 0 0 0 0 0 0 0 0 0 0 0 0 0 0 0 0 0 0 0 0 0 0 0 0 0 0 0 0 0 0 0 0 0 0 0 0 0 0 0 0 0 0
-0 -0 -0 -0 0 0 0 0 0 0 0 0 0 0 0 0 0 0 0 0 -0 0 0 0 0 0 0 0 0 0 0 0 0 0 0 0 0 0 0 0 0 0 0 0 0 0 0 0 0 0 0 0 0 0
Wind_Speed_500mb
25 24 24 28 29 31 34 36 36 38 39 35 33 32 31 29 27 26 26 25 25 11 35 22 17 12 15 8 2 7 4 6 8 8 6 5 3 3 4 2 1 3 4 1 4 3 7 5 6 7 9 16 22 25
17 19 23 31 31 28 34 34 36 36 36 34 34 33 33 30 28 27 27 25 28 31 21 21 28 23 29 20 13 6 4 1 4 9 2 5 3 3 4 2 1 2 9 6 12 10 11 18 27 32 36 28 17 22
22 21 24 34 35 30 34 32 39 31 37 34 35 34 33 31 29 31 28 16 18 22 45 46 28 7 0 3 2 5 2 3 5 6 11 4 4 7 4 7 3 4 8 4 3 8 23 27 32 37 38 36 33 27
20 25 29 31 34 30 35 33 39 34 37 34 36 35 34 31 31 34 32 30 23 7 8 16 12 19 16 16 11 7 9 5 8 5 5 5 4 12 6 4 5 6 12 6 11 21 27 31 25 33 38 39 38 33
24 26 31 27 24 29 34 34 37 38 36 35 36 35 34 30 30 31 33 35 32 12 7 15 26 27 18 13 19 12 5 4 5 3 3 5 8 9 3 4 5 18 13 10 11 11 12 28 31 25 44 32 23 23
26 30 32 26 24 30 32 38 33 47 36 36 36 36 32 29 26 20 13 38 43 26 12 7 7 17 25 27 30 17 8 4 3 2 4 5 5 4 6 6 14 20 27 27 10 12 26 35 41 26 18 17 14 18
27 31 29 26 24 32 31 44 36 37 33 36 36 34 29 29 30 32 9 22 44 34 9 10 11 6 22 39 35 23 16 6 4 3 5 3 7 6 6 6 17 27 22 21 28 22 22 13 14 18 28 26 24 17
29 31 26 23 24 33 31 36 31 33 34 35 34 28 25 27 29 37 23 15 44 45 12 5 10 3 27 13 15 17 13 12 6 4 4 4 5 2 4 21 17 17 14 12 18 23 27 32 26 30 31 24 16 19
31 28 24 25 24 32 32 32 41 35 33 30 27 23 23 25 22 36 41 17 37 20 7 8 7 8 25 11 11 12 11 3 5 6 6 7 2 6 12 11 18 20 10 12 11 17 26 35 35 40 35 24 26 31
31 29 27 24 24 28 38 32 44 39 26 24 24 17 14 21 23 31 20 23 22 21 13 10 8 5 19 12 6 11 5 5 3 5 8 4 7 15 16 13 11 3 6 4 13 22 27 33 35 38 41 38 31 24
29 27 27 23 27 32 42 40 40 27 25 28 19 12 18 38 30 21 13 14 16 7 16 14 18 5 15 9 8 6 7 5 5 7 8 1 5 4 7 1 3 0 5 8 12 17 23 25 24 22 26 30 32 21
27 27 26 24 32 42 44 52 32 33 29 18 12 9 25 19 12 11 9 6 7 13 15 26 23 17 9 10 10 11 6 3 7 10 6 2 7 2 9 11 6 2 5 9 10 10 13 22 22 25 21 23 30 27
32 29 26 28 34 44 55 62 29 28 21 11 11 9 12 11 5 15 16 6 5 14 23 24 14 17 10 7 11 6 7 8 13 5 5 8 7 9 10 11 10 6 6 9 11 11 13 19 18 17 15 19 27 37
32 29 28 35 43 53 66 61 42 29 14 9 12 10 12 9 10 9 10 12 14 17 43 47 23 13 8 6 6 8 2 7 6 5 9 4 19 12 12 9 8 12 12 11 9 12 9 13 17 17 24 14 25 20
31 29 33 42 50 54 55 58 39 26 8 12 11 12 12 12 10 16 28 20 16 20 37 26 12 5 3 8 4 7 5 4 8 11 6 23 23 20 16 13 11 14 15 15 15 12 7 14 17 24 25 19 14 9
27 29 43 50 57 53 49 37 28 22 10 8 11 4 4 9 7 14 24 18 22 29 38 13 10 6 2 8 7 7 15 9 7 9 28 32 27 22 16 16 19 18 16 14 11 11 10 17 21 27 29 22 17 21
36 24 50 58 58 45 41 31 22 15 8 8 10 9 11 7 14 13 16 18 27 31 8 10 8 6 10 7 6 7 12 8 17 32 33 29 25 21 16 15 16 17 16 15 16 16 15 15 17 22 23 25 29 36
25 37 59 57 54 40 36 28 9 6 12 13 5 2 5 12 19 17 13 25 21 19 18 7 14 6 8 8 4 8 9 18 32 30 30 29 23 19 16 15 16 13 10 10 10 12 14 15 17 19 20 23 27 32
37 56 57 62 60 34 15 10 8 8 5 4 3 8 13 24 26 24 23 25 24 27 26 9 10 5 4 6 7 20 29 36 39 35 31 24 18 15 12 10 9 9 6 7 10 10 10 10 11 13 14 16 18 23
58 64 66 71 36 8 5 9 5 4 6 8 9 16 14 21 37 37 29 24 24 12 14 8 4 4 4 7 10 28 33 33 30 30 26 18 13 11 10 8 7 6 5 5 5 3 3 6 12 15 16 19 21 22
73 78 63 43 29 10 6 11 10 3 1 5 12 15 15 34 37 39 35 23 17 10 8 11 19 25 35 37 32 29 29 22 18 20 19 13 11 5 4 2 4 8 8 6 6 8 12 17 20 25 28 28 30 31
66 49 28 24 4 5 13 9 7 2 5 6 10 12 13 11 17 27 31 22 14 16 13 23 34 36 34 33 30 25 22 16 12 9 4 1 1 3 6 11 14 17 13 9 7 7 11 15 18 20 20 22 24 26
40 25 22 4 6 10 11 8 3 8 8 8 11 11 11 8 12 13 13 13 13 27 24 23 26 28 28 26 20 15 12 7 3 1 4 8 12 15 15 13 4 2 5 5 4 9 16 21 23 22 23 26 28 28
30 10 12 9 14 6 4 5 8 9 10 8 6 5 8 13 15 15 6 8 15 20 18 14 15 14 12 10 6 3 3 7 11 14 13 7 5 13 10 6 0 6 10 12 13 14 13 15 17 20 21 21 23 25
12 15 10 9 6 6 8 6 7 9 6 6 7 7 8 9 6 6 4 6 14 16 14 7 3 9 11 10 12 11 14 13 9 15 16 11 6 4 6 9 11 11 10 8 8 8 9 12 15 19 19 19 19 20
7 3 4 3 4 5 3 5 5 5 4 6 6 5 5 7 6 5 5 11 14 17 17 13 7 23 29 22 20 16 13 8 5 3 3 8 10 12 14 16 18 18 15 10 6 7 10 13 14 17 19 22 25 27
7 6 5 5 6 9 10 11 9 11 7 5 2 4 5 7 8 6 11 21 27 29 28 27 24 23 25 23 19 17 14 11 8 6 9 12 14 14 12 10 7 6 2 5 11 16 19 23 29 33 33 34 37 40
8 7 7 8 12 11 7 8 7 6 3 3 5 6 6 5 3 10 20 26 29 28 24 24 24 21 17 15 13 11 10 11 11 13 10 7 8 8 11 13 16 16 18 18 20 25 31 33 35 38 41 46 49 48
13 9 13 15 12 14 12 7 5 6 3 4 7 4 9 13 19 18 18 17 15 12 9 7 5 6 10 13 16 19 20 22 27 30 32 30 24 21 21 17 12 14 20 27 30 35 40 41 42 44 47 51 55 57
19 17 9 9 8 7 10 13 19 24 28 27 34 39 35 30 27 20 14 6 3 5 7 6 10 14 15 15 17 18 21 24 24 21 20 18 16 16 19 22 25 28 29 31 39 42 40 37 35 36 42 45 43 44
16 20 14 14 10 19 18 17 15 17 19 19 19 20 19 18 21 24 19 13 8 6 8 8 8 11 13 16 19 21 22 16 16 18 20 20 21 23 23 25 26 25 29 32 38 37 35 35 38 42 44 40 35 40
9 9 7 6 5 10 8 6 6 5 5 6 6 11 15 10 10 14 29 20 17 16 15 13 10 11 12 12 14 15 17 24 31 31 25 22 23 22 22 24 25 28 30 32 33 32 32 36 38 41 42 40 33 27
6 8 7 5 4 4 7 4 2 2 3 5 7 12 14 10 9 6 13 22 24 26 25 17 7 5 5 7 9 10 11 14 15 17 18 22 28 30 31 32 33 35 38 40 39 37 39 38 38 38 38 38 35 32
Wind_Direction_500mb
248 261 278 288 284 253 232 227 230 224 219 223 224 220 220 218 219 221 229 227 224 254 271 280 286 299 344 356 104 351 36 3 53 72 118 203 147 256 55 316 70 143 111 198 79 51 312 240 305 190 248 281 242 226
246 264 281 292 284 253 230 227 223 220 215 221 221 217 219 215 216 219 235 229 229 234 258 262 270 267 282 285 280 353 124 150 142 92 110 125 124 66 145 252 93 317 176 188 173 222 245 272 258 277 296 290 295 249
239 256 273 283 279 245 226 228 216 220 213 219 219 216 217 214 215 221 225 202 217 241 276 275 267 199 331 190 340 314 12 117 117 112 144 146 114 130 149 244 186 244 172 192 30 251 252 275 288 289 291 287 292 286
232 256 269 272 268 236 223 224 209 219 214 217 217 215 215 214 218 225 231 212 209 235 264 273 261 244 239 237 234 274 289 187 138 130 107 129 153 187 199 204 173 190 148 181 268 287 292 290 296 304 311 305 288 286
240 252 273 282 270 232 221 220 213 218 212 214 214 213 213 213 221 234 237 218 209 213 280 279 259 239 240 235 199 196 212 204 180 152 112 214 162 140 96 91 257 191 188 165 226 262 251 288 306 306 324 309 279 285
254 255 274 282 267 231 225 213 216 211 206 211 213 211 209 211 220 232 254 220 207 218 294 312 313 246 236 211 193 192 166 154 135 203 217 224 200 178 133 199 258 238 243 239 260 278 291 303 308 313 328 317 289 252
261 264 276 281 260 227 223 207 208 199 204 208 210 207 207 213 212 197 197 175 199 207 245 273 273 239 208 182 188 194 194 176 180 203 236 220 177 184 124 201 272 292 290 272 257 272 283 329 327 301 308 293 263 250
257 263 274 286 257 223 222 214 199 196 205 202 204 204 209 216 223 223 186 167 181 182 239 235 265 193 169 169 166 175 175 183 193 207 223 206 157 140 258 250 251 329 300 280 268 254 273 287 297 310 311 295 256 217
251 257 267 285 244 217 213 207 194 198 204 193 200 202 208 214 216 217 208 217 191 198 253 207 183 214 174 161 148 148 159 112 207 199 222 159 350 229 235 290 285 312 288 293 300 264 278 285 290 290 291 270 242 210
244 256 263 271 231 216 202 196 186 194 187 193 191 187 198 202 189 187 186 178 178 209 237 243 217 226 171 163 132 128 133 145 158 244 144 106 252 264 272 284 312 348 11 273 295 315 316 306 300 291 283 280 253 236
244 256 265 253 215 202 190 181 177 186 192 186 192 228 195 174 168 185 182 174 181 213 206 228 217 198 188 146 149 145 159 164 152 243 137 283 281 252 346 354 192 257 336 358 353 335 332 341 340 329 303 266 232 249
247 257 261 232 205 192 191 180 180 192 188 194 221 229 157 177 187 158 182 168 173 201 193 189 215 213 172 153 114 168 144 110 201 142 91 224 252 49 48 53 67 52 8 2 356 1 11 2 2 6 339 295 268 280
249 259 248 215 196 186 183 179 182 195 214 236 219 216 191 192 128 167 181 213 192 179 163 168 182 189 153 148 100 137 128 194 135 69 206 226 143 113 81 62 48 31 21 13 16 354 9 5 4 10 345 313 304 301
252 250 227 201 193 181 179 191 204 207 229 250 222 199 188 195 219 184 171 171 178 190 176 177 157 186 141 99 144 108 163 105 71 133 228 228 148 117 106 99 67 54 44 26 355 331 354 351 356 345 345 339 329 328
244 229 210 192 186 182 185 186 196 196 244 242 233 203 201 202 179 183 186 181 176 178 166 150 132 136 54 103 59 108 97 162 187 209 222 160 148 144 124 113 104 69 50 34 22 9 285 322 320 321 331 347 340 330
215 214 199 176 180 171 173 177 192 197 244 249 252 257 182 139 165 168 179 185 180 165 162 166 123 104 121 135 120 180 137 193 225 204 162 154 155 149 126 102 93 80 66 59 45 22 346 322 323 321 322 321 318 321
180 192 176 169 169 168 177 179 191 216 233 247 263 258 222 168 173 156 156 167 166 161 156 123 88 164 111 102 139 180 173 203 179 160 156 148 136 131 127 115 97 79 65 54 48 46 35 11 351 344 335 326 311 323
182 178 177 169 170 178 177 196 185 181 246 252 275 311 137 131 140 138 139 157 155 161 148 139 127 104 135 138 234 210 176 152 149 147 143 140 141 143 130 111 101 90 76 65 52 38 25 6 355 352 347 342 338 333
159 163 163 176 172 171 207 181 186 224 251 328 13 89 98 92 96 110 121 146 146 125 115 87 76 117 199 199 178 172 168 156 146 141 140 135 127 131 134 127 113 113 90 65 77 79 56 39 25 15 6 354 348 340
173 160 173 174 165 218 245 102 131 357 354 358 49 73 80 90 88 85 100 101 79 73 62 52 120 125 115 139 145 148 143 148 147 138 132 118 120 130 129 126 128 103 56 63 63 23 325 333 329 338 347 347 337 343
154 161 173 173 213 247 88 76 4 317 174 68 58 62 66 72 65 61 60 73 68 37 62 73 99 112 115 109 109 120 127 129 135 145 131 114 126 119 119 78 358 334 329 305 292 311 331 338 339 334 320 320 325 325
156 160 156 193 209 93 83 89 291 335 98 99 46 59 52 34 43 29 63 64 55 37 64 106 111 111 114 110 109 111 108 112 115 118 119 115 336 328 299 302 301 302 285 276 289 322 331 335 340 343 343 345 342 338
137 118 114 111 59 62 58 345 284 37 78 38 28 36 18 48 34 53 65 47 62 59 78 105 114 116 117 116 117 120 118 108 112 233 280 288 288 289 289 293 282 187 148 103 30 348 332 327 325 322 322 323 328 333
124 72 38 49 23 43 58 62 42 39 60 59 71 40 20 27 26 52 69 56 62 74 74 85 134 133 135 142 171 194 258 265 260 253 255 245 190 141 123 122 21 307 306 305 306 308 300 296 308 320 328 331 334 339
66 25 25 35 36 35 36 38 35 60 71 40 64 33 8 35 67 59 52 42 52 62 58 38 235 204 188 159 138 141 139 124 139 142 140 150 175 234 272 284 281 268 264 244 262 289 301 307 305 307 311 316 319 323
90 45 37 15 32 72 17 69 64 91 98 71 67 82 62 70 68 53 31 37 79 91 92 96 125 143 127 120 109 101 99 106 120 187 268 287 283 281 279 277 268 260 230 229 250 278 296 299 297 298 299 299 305 307
68 66 72 52 71 96 81 68 70 63 64 81 124 78 76 71 61 27 82 96 95 93 91 88 88 92 94 89 80 71 62 52 32 349 314 305 301 296 288 286 226 191 171 317 332 328 319 316 310 306 301 296 297 301
50 61 77 60 71 62 94 64 54 52 64 77 98 55 82 86 66 65 90 103 96 90 84 77 73 71 69 62 50 35 18 10 360 346 338 324 307 296 303 297 295 300 308 306 311 310 303 302 302 301 299 299 299 297
52 53 75 51 57 52 46 68 68 41 71 75 94 71 80 77 83 97 93 93 90 81 77 65 33 356 334 323 319 317 319 322 321 319 312 308 304 291 277 275 282 297 303 307 310 313 311 307 306 307 306 305 304 303
29 54 77 50 59 48 34 94 94 80 77 91 113 113 102 90 78 83 90 95 56 8 335 287 289 288 294 302 307 304 305 309 320 308 301 305 309 301 289 284 290 299 308 319 331 328 322 319 321 324 325 322 318 318
43 53 52 60 75 65 77 103 95 84 86 97 116 120 127 128 87 63 61 52 33 348 318 322 335 323 321 318 318 316 316 294 258 274 278 287 293 293 288 290 295 302 317 323 331 331 325 324 326 327 329 327 329 331
56 52 63 59 61 45 71 83 91 100 109 110 107 126 134 122 75 38 16 11 16 23 19 8 12 27 19 18 12 358 326 306 290 286 260 261 267 268 271 273 277 284 292 304 316 322 321 318 321 324 328 329 319 326
73 73 73 70 58 64 34 34 74 75 85 80 83 83 80 84 87 67 24 2 4 2 358 357 331 288 337 337 338 334 336 340 339 339 321 305 296 282 273 272 276 282 290 299 301 298 302 304 309 312 316 319 322 320
Wind_Speed_850mb
25 24 24 28 29 31 34 36 36 38 39 35 33 32 31 29 27 26 26 25 25 11 35 22 17 12 15 8 2 7 4 6 8 8 6 5 3 3 4 2 1 3 4 1 4 3 7 5 6 7 9 16 22 25
17 19 23 31 31 28 34 34 36 36 36 34 34 33 33 30 28 27 27 25 28 31 21 21 28 23 29 20 13 6 4 1 4 9 2 5 3 3 4 2 1 2 9 6 12 10 11 18 27 32 36 28 17 22
22 21 24 34 35 30 34 32 39 31 37 34 35 34 33 31 29 31 28 16 18 22 45 46 28 7 0 3 2 5 2 3 5 6 11 4 4 7 4 7 3 4 8 4 3 8 23 27 32 37 38 36 33 27
20 25 29 31 34 30 35 33 39 34 37 34 36 35 34 31 31 34 32 30 23 7 8 16 12 19 16 16 11 7 9 5 8 5 5 5 4 12 6 4 5 6 12 6 11 21 27 31 25 33 38 39 38 33
24 26 31 27 24 29 34 34 37 38 36 35 36 35 34 30 30 31 33 35 32 12 7 15 26 27 18 13 19 12 5 4 5 3 3 5 8 9 3 4 5 18 13 10 11 11 12 28 31 25 44 32 23 23
26 30 32 26 24 30 32 38 33 47 36 36 36 36 32 29 26 20 13 38 43 26 12 7 7 17 25 27 30 17 8 4 3 2 4 5 5 4 6 6 14 20 27 27 10 12 26 35 41 26 18 17 14 18
27 31 29 26 24 32 31 44 36 37 33 36 36 34 29 29 30 32 9 22 44 34 9 10 11 6 22 39 35 23 16 6 4 3 5 3 7 6 6 6 17 27 22 21 28 22 22 13 14 18 28 26 24 17
29 31 26 23 24 33 31 36 31 33 34 35 34 28 25 27 29 37 23 15 44 45 12 5 10 3 27 13 15 17 13 12 6 4 4 4 5 2 4 21 17 17 14 12 18 23 27 32 26 30 31 24 16 19
31 28 24 25 24 32 32 32 41 35 33 30 27 23 23 25 22 36 41 17 37 20 7 8 7 8 25 11 11 12 11 3 5 6 6 7 2 6 12 11 18 20 10 12 11 17 26 35 35 40 35 24 26 31
31 29 27 24 24 28 38 32 44 39 26 24 24 17 14 21 23 31 20 23 22 21 13 10 8 5 19 12 6 11 5 5 3 5 8 4 7 15 16 13 11 3 6 4 13 22 27 33 35 38 41 38 31 24
29 27 27 23 27 32 42 40 40 27 25 28 19 12 18 38 30 21 13 14 16 7 16 14 18 5 15 9 8 6 7 5 5 7 8 1 5 4 7 1 3 0 5 8 12 17 23 25 24 22 26 30 32 21
27 27 26 24 32 42 44 52 32 33 29 18 12 9 25 19 12 11 9 6 7 13 15 26 23 17 9 10 10 11 6 3 7 10 6 2 7 2 9 11 6 2 5 9 10 10 13 22 22 25 21 23 30 27
32 29 26 28 34 44 55 62 29 28 21 11 11 9 12 11 5 15 16 6 5 14 23 24 14 17 10 7 11 6 7 8 13 5 5 8 7 9 10 11 10 6 6 9 11 11 13 19 18 17 15 19 27 37
32 29 28 35 43 53 66 61 42 29 14 9 12 10 12 9 10 9 10 12 14 17 43 47 23 13 8 6 6 8 2 7 6 5 9 4 19 12 12 9 8 12 12 11 9 12 9 13 17 17 24 14 25 20
31 29 33 42 50 54 55 58 39 26 8 12 11 12 12 12 10 16 28 20 16 20 37 26 12 5 3 8 4 7 5 4 8 11 6 23 23 20 16 13 11 14 15 15 15 12 7 14 17 24 25 19 14 9
27 29 43 50 57 53 49 37 28 22 10 8 11 4 4 9 7 14 24 18 22 29 38 13 10 6 2 8 7 7 15 9 7 9 28 32 27 22 16 16 19 18 16 14 11 11 10 17 21 27 29 22 17 21
36 24 50 58 58 45 41 31 22 15 8 8 10 9 11 7 14 13 16 18 27 31 8 10 8 6 10 7 6 7 12 8 17 32 33 29 25 21 16 15 16 17 16 15 16 16 15 15 17 22 23 25 29 36
25 37 59 57 54 40 36 28 9 6 12 13 5 2 5 12 19 17 13 25 21 19 18 7 14 6 8 8 4 8 9 18 32 30 30 29 23 19 16 15 16 13 10 10 10 12 14 15 17 19 20 23 27 32
37 56 57 62 60 34 15 10 8 8 5 4 3 8 13 24 26 24 23 25 24 27 26 9 10 5 4 6 7 20 29 36 39 35 31 24 18 15 12 10 9 9 6 7 10 10 10 10 11 13 14 16 18 23
58 64 66 71 36 8 5 9 5 4 6 8 9 16 14 21 37 37 29 24 24 12 14 8 4 4 4 7 10 28 33 33 30 30 26 18 13 11 10 8 7 6 5 5 5 3 3 6 12 15 16 19 21 22
73 78 63 43 29 10 6 11 10 3 1 5 12 15 15 34 37 39 35 23 17 10 8 11 19 25 35 37 32 29 29 22 18 20 19 13 11 5 4 2 4 8 8 6 6 8 12 17 20 25 28 28 30 31
66 49 28 24 4 5 13 9 7 2 5 6 10 12 13 11 17 27 31 22 14 16 13 23 34 36 34 33 30 25 22 16 12 9 4 1 1 3 6 11 14 17 13 9 7 7 11 15 18 20 20 22 24 26
40 25 22 4 6 10 11 8 3 8 8 8 11 11 11 8 12 13 13 13 13 27 24 23 26 28 28 26 20 15 12 7 3 1 4 8 12 15 15 13 4 2 5 5 4 9 16 21 23 22 23 26 28 28
30 10 12 9 14 6 4 5 8 9 10 8 6 5 8 13 15 15 6 8 15 20 18 14 15 14 12 10 6 3 3 7 11 14 13 7 5 13 10 6 0 6 10 12 13 14 13 15 17 20 21 21 23 25
12 15 10 9 6 6 8 6 7 9 6 6 7 7 8 9 6 6 4 6 14 16 14 7 3 9 11 10 12 11 14 13 9 15 16 11 6 4 6 9 11 11 10 8 8 8 9 12 15 19 19 19 19 20
7 3 4 3 4 5 3 5 5 5 4 6 6 5 5 7 6 5 5 11 14 17 17 13 7 23 29 22 20 16 13 8 5 3 3 8 10 12 14 16 18 18 15 10 6 7 10 13 14 17 19 22 25 27
7 6 5 5 6 9 10 11 9 11 7 5 2 4 5 7 8 6 11 21 27 29 28 27 24 23 25 23 19 17 14 11 8 6 9 12 14 14 12 10 7 6 2 5 11 16 19 23 29 33 33 34 37 40
8 7 7 8 12 11 7 8 7 6 3 3 5 6 6 5 3 10 20 26 29 28 24 24 24 21 17 15 13 11 10 11 11 13 10 7 8 8 11 13 16 16 18 18 20 25 31 33 35 38 41 46 49 48
13 9 13 15 12 14 12 7 5 6 3 4 7 4 9 13 19 18 18 17 15 12 9 7 5 6 10 13 16 19 20 22 27 30 32 30 24 21 21 17 12 14 20 27 30 35 40 41 42 44 47 51 55 57
19 17 9 9 8 7 10 13 19 24 28 27 34 39 35 30 27 20 14 6 3 5 7 6 10 14 15 15 17 18 21 24 24 21 20 18 16 16 19 22 25 28 29 31 39 42 40 37 35 36 42 45 43 44
16 20 14 14 10 19 18 17 15 17 19 19 19 20 19 18 21 24 19 13 8 6 8 8 8 11 13 16 19 21 22 16 16 18 20 20 21 23 23 25 26 25 29 32 38 37 35 35 38 42 44 40 35 40
9 9 7 6 5 10 8 6 6 5 5 6 6 11 15 10 10 14 29 20 17 16 15 13 10 11 12 12 14 15 17 24 31 31 25 22 23 22 22 24 25 28 30 32 33 32 32 36 38 41 42 40 33 27
6 8 7 5 4 4 7 4 2 2 3 5 7 12 14 10 9 6 13 22 24 26 25 17 7 5 5 7 9 10 11 14 15 17 18 22 28 30 31 32 33 35 38 40 39 37 39 38 38 38 38 38 35 32
Wind_Direction_850mb
248 261 278 288 284 253 232 227 230 224 219 223 224 220 220 218 219 221 229 227 224 254 271 280 286 299 344 356 104 351 36 3 53 72 118 203 147 256 55 316 70 143 111 198 79 51 312 240 305 190 248 281 242 226
246 264 281 292 284 253 230 227 223 220 215 221 221 217 219 215 216 219 235 229 229 234 258 262 270 267 282 285 280 353 124 150 142 92 110 125 124 66 145 252 93 317 176 188 173 222 245 272 258 277 296 290 295 249
239 256 273 283 279 245 226 228 216 220 213 219 219 216 217 214 215 221 225 202 217 241 276 275 267 199 331 190 340 314 12 117 117 112 144 146 114 130 149 244 186 244 172 192 30 251 252 275 288 289 291 287 292 286
232 256 269 272 268 236 223 224 209 219 214 217 217 215 215 214 218 225 231 212 209 235 264 273 261 244 239 237 234 274 289 187 138 130 107 129 153 187 199 204 173 190 148 181 268 287 292 290 296 304 311 305 288 286
240 252 273 282 270 232 221 220 213 218 212 214 214 213 213 213 221 234 237 218 209 213 280 279 259 239 240 235 199 196 212 204 180 152 112 214 162 140 96 91 257 191 188 165 226 262 251 288 306 306 324 309 279 285
254 255 274 282 267 231 225 213 216 211 206 211 213 211 209 211 220 232 254 220 207 218 294 312 313 246 236 211 193 192 166 154 135 203 217 224 200 178 133 199 258 238 243 239 260 278 291 303 308 313 328 317 289 252
261 264 276 281 260 227 223 207 208 199 204 208 210 207 207 213 212 197 197 175 199 207 245 273 273 239 208 182 188 194 194 176 180 203 236 220 177 184 124 201 272 292 290 272 257 272 283 329 327 301 308 293 263 250
257 263 274 286 257 223 222 214 199 196 205 202 204 204 209 216 223 223 186 167 181 182 239 235 265 193 169 169 166 175 175 183 193 207 223 206 157 140 258 250 251 329 300 280 268 254 273 287 297 310 311 295 256 217
251 257 267 285 244 217 213 207 194 198 204 193 200 202 208 214 216 217 208 217 191 198 253 207 183 214 174 161 148 148 159 112 207 199 222 159 350 229 235 290 285 312 288 293 300 264 278 285 290 290 291 270 242 210
244 256 263 271 231 216 202 196 186 194 187 193 191 187 198 202 189 187 186 178 178 209 237 243 217 226 171 163 132 128 133 145 158 244 144 106 252 264 272 284 312 348 11 273 295 315 316 306 300 291 283 280 253 236
244 256 265 253 215 202 190 181 177 186 192 186 192 228 195 174 168 185 182 174 181 213 206 228 217 198 188 146 149 145 159 164 152 243 137 283 281 252 346 354 192 257 336 358 353 335 332 341 340 329 303 266 232 249
247 257 261 232 205 192 191 180 180 192 188 194 221 229 157 177 187 158 182 168 173 201 193 189 215 213 172 153 114 168 144 110 201 142 91 224 252 49 48 53 67 52 8 2 356 1 11 2 2 6 339 295 268 280
249 259 248 215 196 186 183 179 182 195 214 236 219 216 191 192 128 167 181 213 192 179 163 168 182 189 153 148 100 137 128 194 135 69 206 226 143 113 81 62 48 31 21 13 16 354 9 5 4 10 345 313 304 301
252 250 227 201 193 181 179 191 204 207 229 250 222 199 188 195 219 184 171 171 178 190 176 177 157 186 141 99 144 108 163 105 71 133 228 228 148 117 106 99 67 54 44 26 355 331 354 351 356 345 345 339 329 328
244 229 210 192 186 182 185 186 196 196 244 242 233 203 201 202 179 183 186 181 176 178 166 150 132 136 54 103 59 108 97 162 187 209 222 160 148 144 124 113 104 69 50 34 22 9 285 322 320 321 331 347 340 330
215 214 199 176 180 171 173 177 192 197 244 249 252 257 182 139 165 168 179 185 180 165 162 166 123 104 121 135 120 180 137 193 225 204 162 154 155 149 126 102 93 80 66 59 45 22 346 322 323 321 322 321 318 321
180 192 176 169 169 168 177 179 191 216 233 247 263 258 222 168 173 156 156 167 166 161 156 123 88 164 111 102 139 180 173 203 179 160 156 148 136 131 127 115 97 79 65 54 48 46 35 11 351 344 335 326 311 323
182 178 177 169 170 178 177 196 185 181 246 252 275 311 137 131 140 138 139 157 155 161 148 139 127 104 135 138 234 210 176 152 149 147 143 140 141 143 130 111 101 90 76 65 52 38 25 6 355 352 347 342 338 333
159 163 163 176 172 171 207 181 186 224 251 328 13 89 98 92 96 110 121 146 146 125 115 87 76 117 199 199 178 172 168 156 146 141 140 135 127 131 134 127 113 113 90 65 77 79 56 39 25 15 6 354 348 340
173 160 173 174 165 218 245 102 131 357 354 358 49 73 80 90 88 85 100 101 79 73 62 52 120 125 115 139 145 148 143 148 147 138 132 118 120 130 129 126 128 103 56 63 63 23 325 333 329 338 347 347 337 343
154 161 173 173 213 247 88 76 4 317 174 68 58 62 66 72 65 61 60 73 68 37 62 73 99 112 115 109 109 120 127 129 135 145 131 114 126 119 119 78 358 334 329 305 292 311 331 338 339 334 320 320 325 325
156 160 156 193 209 93 83 89 291 335 98 99 46 59 52 34 43 29 63 64 55 37 64 106 111 111 114 110 109 111 108 112 115 118 119 115 336 328 299 302 301 302 285 276 289 322 331 335 340 343 343 345 342 338
137 118 114 111 59 62 58 345 284 37 78 38 28 36 18 48 34 53 65 47 62 59 78 105 114 116 117 116 117 120 118 108 112 233 280 288 288 289 289 293 282 187 148 103 30 348 332 327 325 322 322 323 328 333
124 72 38 49 23 43 58 62 42 39 60 59 71 40 20 27 26 52 69 56 62 74 74 85 134 133 135 142 171 194 258 265 260 253 255 245 190 141 123 122 21 307 306 305 306 308 300 296 308 320 328 331 334 339
66 25 25 35 36 35 36 38 35 60 71 40 64 33 8 35 67 59 52 42 52 62 58 38 235 204 188 159 138 141 139 124 139 142 140 150 175 234 272 284 281 268 264 244 262 289 301 307 305 307 311 316 319 323
90 45 37 15 32 72 17 69 64 91 98 71 67 82 62 70 68 53 31 37 79 91 92 96 125 143 127 120 109 101 99 106 120 187 268 287 283 281 279 277 268 260 230 229 250 278 296 299 297 298 299 299 305 307
68 66 72 52 71 96 81 68 70 63 64 81 124 78 76 71 61 27 82 96 95 93 91 88 88 92 94 89 80 71 62 52 32 349 314 305 301 296 288 286 226 191 171 317 332 328 319 316 310 306 301 296 297 301
50 61 77 60 71 62 94 64 54 52 64 77 98 55 82 86 66 65 90 103 96 90 84 77 73 71 69 62 50 35 18 10 360 346 338 324 307 296 303 297 295 300 308 306 311 310 303 302 302 301 299 299 299 297
52 53 75 51 57 52 46 68 68 41 71 75 94 71 80 77 83 97 93 93 90 81 77 65 33 356 334 323 319 317 319 322 321 319 312 308 304 291 277 275 282 297 303 307 310 313 311 307 306 307 306 305 304 303
29 54 77 50 59 48 34 94 94 80 77 91 113 113 102 90 78 83 90 95 56 8 335 287 289 288 294 302 307 304 305 309 320 308 301 305 309 301 289 284 290 299 308 319 331 328 322 319 321 324 325 322 318 318
43 53 52 60 75 65 77 103 95 84 86 97 116 120 127 128 87 63 61 52 33 348 318 322 335 323 321 318 318 316 316 294 258 274 278 287 293 293 288 290 295 302 317 323 331 331 325 324 326 327 329 327 329 331
56 52 63 59 61 45 71 83 91 100 109 110 107 126 134 122 75 38 16 11 16 23 19 8 12 27 19 18 12 358 326 306 290 286 260 261 267 268 271 273 277 284 292 304 316 322 321 318 321 324 328 329 319 326
73 73 73 70 58 64 34 34 74 75 85 80 83 83 80 84 87 67 24 2 4 2 358 357 331 288 337 337 338 334 336 340 339 339 321 305 296 282 273 272 276 282 290 299 301 298 302 304 309 312 316 319 322 320